{"data":{"norad_id":62483,"epoch":"2026-05-25T02:14:38.940000Z","epoch_age_seconds":60230,"freshness":"FRESH","line1":"1 62483U 25001A   26145.09350625  .00000137  00000+0  00000+0 0  9998","line2":"2 62483   0.0358 113.3099 0000105 216.0976 351.2547  1.00273485  3947","mean_motion":1.00273485,"eccentricity":1.05e-5,"inclination_deg":0.0358,"raan_deg":113.3099,"arg_perigee_deg":216.0976,"mean_anomaly_deg":351.2547,"bstar":0,"rev_number":394,"period_min":1436.0725569676,"perigee_km":35785.67567153,"apogee_km":35786.561120894,"semimajor_km":42164.255396212,"source":"CELESTRAK","updated_at":"2026-05-25T13:38:14.150302Z"}}